<?xml version="1.0" encoding="UTF-8" standalone="no" ?>
<gpx xmlns="http://www.topografix.com/GPX/1/1" xmlns:xsi="http://www.w3.org/2001/XMLSchema-instance" xsi:schemaLocation="http://www.topografix.com/GPX/1/1 http://www.topografix.com/GPX/1/1/gpx.xsd" version="1.1" creator="VisuGPX - https://www.visugpx.com">
  <metadata>
    <name>3-Castellane-NE-CBarnabe-31-750</name>
    <desc><![CDATA[A partir de Castellane cette boucle emprunte la route longeant le lac de Chaudanne pour atteindre le village de Demandolx puis bifurque à droite sur une piste peu avant le col de Saint-Barnabé. Sous le massif du Teillon qui culmine à 1893 m, la descente s'effectue sur un single par la variante du GR4. Cet itinéraire qui offre une vue plongeante sur le lac permet de découvrir des paysages montagneux à proximité de Castellane. Parcours N°4 de l'Espace VTT - FFC du Verdon et des vallées de l'Asse. Une adaptation à partir de https://www.visugpx.com/1332353090]]></desc>
  </metadata>
  <wpt lat="43.77722" lon="6.24351">
    <ele>800</ele>
    <name><![CDATA[Aiguines]]></name>
  </wpt>
  <wpt lat="43.96425" lon="6.50771">
    <ele>888</ele>
    <name><![CDATA[Andre]]></name>
  </wpt>
  <wpt lat="43.73078" lon="6.38669">
    <ele>716</ele>
    <name><![CDATA[Arturby]]></name>
  </wpt>
  <wpt lat="43.95192" lon="6.3667">
    <ele>723</ele>
    <name><![CDATA[Barreme]]></name>
  </wpt>
  <wpt lat="43.83806" lon="6.48973">
    <ele>759</ele>
    <name><![CDATA[Camping CN]]></name>
  </wpt>
  <wpt lat="43.84647" lon="6.5129">
    <ele>726</ele>
    <name><![CDATA[Castellane]]></name>
  </wpt>
  <wpt lat="43.71507" lon="6.49897">
    <ele>922</ele>
    <name><![CDATA[Comps]]></name>
  </wpt>
  <wpt lat="44.09538" lon="6.24176">
    <ele>633</ele>
    <name><![CDATA[Digne]]></name>
  </wpt>
  <wpt lat="43.77977" lon="6.34136">
    <ele>932</ele>
    <name><![CDATA[LaPalud]]></name>
  </wpt>
  <wpt lat="43.84816" lon="6.22414">
    <ele>794</ele>
    <name><![CDATA[Moustier]]></name>
  </wpt>
  <wpt lat="43.79855" lon="6.40255">
    <ele>963</ele>
    <name><![CDATA[Rougon]]></name>
  </wpt>
  <wpt lat="43.91407" lon="6.4066">
    <ele>780</ele>
    <name><![CDATA[Senez]]></name>
  </wpt>
  <trk>
    <name><![CDATA[20180106220232-22Mft]]></name>
    <trkseg>
      <trkpt lat="43.83795" lon="6.48996">
        <ele>759</ele>
        <time>2011-07-27T13:37:34Z</time>
      </trkpt>
      <trkpt lat="43.83771" lon="6.49088">
        <ele>764</ele>
        <time>2011-07-27T13:37:34Z</time>
      </trkpt>
      <trkpt lat="43.83789" lon="6.4917">
        <ele>760</ele>
        <time>2011-07-27T13:37:34Z</time>
      </trkpt>
      <trkpt lat="43.83935" lon="6.49283">
        <ele>743</ele>
        <time>2011-07-27T13:37:34Z</time>
      </trkpt>
      <trkpt lat="43.84164" lon="6.49598">
        <ele>721</ele>
        <time>2011-07-27T13:37:34Z</time>
      </trkpt>
      <trkpt lat="43.84021" lon="6.49687">
        <ele>714</ele>
        <time>2011-07-27T13:37:34Z</time>
      </trkpt>
      <trkpt lat="43.84313" lon="6.5039">
        <ele>721</ele>
        <time>2011-07-27T13:37:34Z</time>
      </trkpt>
      <trkpt lat="43.84459" lon="6.50982">
        <ele>723</ele>
        <time>2011-07-27T13:37:34Z</time>
      </trkpt>
      <trkpt lat="43.84529" lon="6.51251">
        <ele>723</ele>
        <time>2011-07-27T13:37:34Z</time>
      </trkpt>
      <trkpt lat="43.84574" lon="6.51397">
        <ele>724</ele>
        <time>2011-07-27T13:37:34Z</time>
      </trkpt>
      <trkpt lat="43.84512" lon="6.51489">
        <ele>730</ele>
        <time>2011-07-27T13:37:34Z</time>
      </trkpt>
      <trkpt lat="43.84512" lon="6.51717">
        <ele>748</ele>
        <time>2011-07-27T13:37:34Z</time>
      </trkpt>
      <trkpt lat="43.84441" lon="6.51981">
        <ele>748</ele>
        <time>2011-07-27T13:37:34Z</time>
      </trkpt>
      <trkpt lat="43.84382" lon="6.52115">
        <ele>756</ele>
        <time>2011-07-27T13:37:34Z</time>
      </trkpt>
      <trkpt lat="43.84326" lon="6.52226">
        <ele>764</ele>
        <time>2011-07-27T13:37:34Z</time>
      </trkpt>
      <trkpt lat="43.84261" lon="6.52478">
        <ele>747</ele>
        <time>2011-07-27T13:37:34Z</time>
      </trkpt>
      <trkpt lat="43.84208" lon="6.52622">
        <ele>740</ele>
        <time>2011-07-27T13:37:34Z</time>
      </trkpt>
      <trkpt lat="43.84204" lon="6.52717">
        <ele>734</ele>
        <time>2011-07-27T13:37:34Z</time>
      </trkpt>
      <trkpt lat="43.84342" lon="6.53259">
        <ele>738</ele>
        <time>2011-07-27T13:37:34Z</time>
      </trkpt>
      <trkpt lat="43.84375" lon="6.53339">
        <ele>737</ele>
        <time>2011-07-27T13:37:34Z</time>
      </trkpt>
      <trkpt lat="43.8438" lon="6.53464">
        <ele>741</ele>
        <time>2011-07-27T13:37:34Z</time>
      </trkpt>
      <trkpt lat="43.84346" lon="6.53505">
        <ele>748</ele>
        <time>2011-07-27T13:37:34Z</time>
      </trkpt>
      <trkpt lat="43.84302" lon="6.53614">
        <ele>761</ele>
        <time>2011-07-27T13:37:34Z</time>
      </trkpt>
      <trkpt lat="43.84306" lon="6.53685">
        <ele>769</ele>
        <time>2011-07-27T13:37:34Z</time>
      </trkpt>
      <trkpt lat="43.84383" lon="6.53893">
        <ele>779</ele>
        <time>2011-07-27T13:37:34Z</time>
      </trkpt>
      <trkpt lat="43.84423" lon="6.53971">
        <ele>782</ele>
        <time>2011-07-27T13:37:34Z</time>
      </trkpt>
      <trkpt lat="43.84457" lon="6.54017">
        <ele>793</ele>
        <time>2011-07-27T13:37:34Z</time>
      </trkpt>
      <trkpt lat="43.84502" lon="6.54029">
        <ele>790</ele>
        <time>2011-07-27T13:37:34Z</time>
      </trkpt>
      <trkpt lat="43.84551" lon="6.54027">
        <ele>786</ele>
        <time>2011-07-27T13:37:34Z</time>
      </trkpt>
      <trkpt lat="43.84591" lon="6.54055">
        <ele>775</ele>
        <time>2011-07-27T13:37:34Z</time>
      </trkpt>
      <trkpt lat="43.84613" lon="6.54187">
        <ele>797</ele>
        <time>2011-07-27T13:37:34Z</time>
      </trkpt>
      <trkpt lat="43.84609" lon="6.54271">
        <ele>814</ele>
        <time>2011-07-27T13:37:34Z</time>
      </trkpt>
      <trkpt lat="43.84629" lon="6.5435">
        <ele>818</ele>
        <time>2011-07-27T13:37:34Z</time>
      </trkpt>
      <trkpt lat="43.84653" lon="6.54373">
        <ele>812</ele>
        <time>2011-07-27T13:37:34Z</time>
      </trkpt>
      <trkpt lat="43.84695" lon="6.54492">
        <ele>805</ele>
        <time>2011-07-27T13:37:34Z</time>
      </trkpt>
      <trkpt lat="43.84719" lon="6.54506">
        <ele>819</ele>
        <time>2011-07-27T13:37:34Z</time>
      </trkpt>
      <trkpt lat="43.84752" lon="6.54533">
        <ele>800</ele>
        <time>2011-07-27T13:37:34Z</time>
      </trkpt>
      <trkpt lat="43.84871" lon="6.54533">
        <ele>800</ele>
        <time>2011-07-27T13:37:34Z</time>
      </trkpt>
      <trkpt lat="43.84899" lon="6.54569">
        <ele>803</ele>
        <time>2011-07-27T13:37:34Z</time>
      </trkpt>
      <trkpt lat="43.84915" lon="6.54638">
        <ele>830</ele>
        <time>2011-07-27T13:37:34Z</time>
      </trkpt>
      <trkpt lat="43.84941" lon="6.5465">
        <ele>814</ele>
        <time>2011-07-27T13:37:34Z</time>
      </trkpt>
      <trkpt lat="43.84975" lon="6.54646">
        <ele>805</ele>
        <time>2011-07-27T13:37:34Z</time>
      </trkpt>
      <trkpt lat="43.85007" lon="6.54698">
        <ele>804</ele>
        <time>2011-07-27T13:37:34Z</time>
      </trkpt>
      <trkpt lat="43.85267" lon="6.54904">
        <ele>799</ele>
        <time>2011-07-27T13:37:34Z</time>
      </trkpt>
      <trkpt lat="43.85312" lon="6.54898">
        <ele>797</ele>
        <time>2011-07-27T13:37:34Z</time>
      </trkpt>
      <trkpt lat="43.85367" lon="6.5493">
        <ele>802</ele>
        <time>2011-07-27T13:37:34Z</time>
      </trkpt>
      <trkpt lat="43.85389" lon="6.54994">
        <ele>805</ele>
        <time>2011-07-27T13:37:34Z</time>
      </trkpt>
      <trkpt lat="43.8547" lon="6.54991">
        <ele>794</ele>
        <time>2011-07-27T13:37:34Z</time>
      </trkpt>
      <trkpt lat="43.85512" lon="6.55019">
        <ele>796</ele>
        <time>2011-07-27T13:37:34Z</time>
      </trkpt>
      <trkpt lat="43.85528" lon="6.55073">
        <ele>803</ele>
        <time>2011-07-27T13:37:34Z</time>
      </trkpt>
      <trkpt lat="43.85575" lon="6.55145">
        <ele>809</ele>
        <time>2011-07-27T13:37:34Z</time>
      </trkpt>
      <trkpt lat="43.85583" lon="6.5517">
        <ele>807</ele>
        <time>2011-07-27T13:37:34Z</time>
      </trkpt>
      <trkpt lat="43.8561" lon="6.55172">
        <ele>806</ele>
        <time>2011-07-27T13:37:34Z</time>
      </trkpt>
      <trkpt lat="43.85697" lon="6.553">
        <ele>807</ele>
        <time>2011-07-27T13:37:34Z</time>
      </trkpt>
      <trkpt lat="43.85738" lon="6.55399">
        <ele>818</ele>
        <time>2011-07-27T13:37:34Z</time>
      </trkpt>
      <trkpt lat="43.85769" lon="6.55417">
        <ele>809</ele>
        <time>2011-07-27T13:37:34Z</time>
      </trkpt>
      <trkpt lat="43.85793" lon="6.55543">
        <ele>821</ele>
        <time>2011-07-27T13:37:34Z</time>
      </trkpt>
      <trkpt lat="43.85808" lon="6.55566">
        <ele>819</ele>
        <time>2011-07-27T13:37:34Z</time>
      </trkpt>
      <trkpt lat="43.85863" lon="6.55548">
        <ele>800</ele>
        <time>2011-07-27T13:37:34Z</time>
      </trkpt>
      <trkpt lat="43.85904" lon="6.55542">
        <ele>799</ele>
        <time>2011-07-27T13:37:34Z</time>
      </trkpt>
      <trkpt lat="43.85968" lon="6.55575">
        <ele>795</ele>
        <time>2011-07-27T13:37:34Z</time>
      </trkpt>
      <trkpt lat="43.86031" lon="6.55679">
        <ele>807</ele>
        <time>2011-07-27T13:37:34Z</time>
      </trkpt>
      <trkpt lat="43.86076" lon="6.55689">
        <ele>801</ele>
        <time>2011-07-27T13:37:34Z</time>
      </trkpt>
      <trkpt lat="43.86097" lon="6.55731">
        <ele>799</ele>
        <time>2011-07-27T13:37:34Z</time>
      </trkpt>
      <trkpt lat="43.86119" lon="6.55739">
        <ele>799</ele>
        <time>2011-07-27T13:37:34Z</time>
      </trkpt>
      <trkpt lat="43.86151" lon="6.55716">
        <ele>797</ele>
        <time>2011-07-27T13:37:34Z</time>
      </trkpt>
      <trkpt lat="43.86205" lon="6.5572">
        <ele>798</ele>
        <time>2011-07-27T13:37:34Z</time>
      </trkpt>
      <trkpt lat="43.86291" lon="6.55717">
        <ele>795</ele>
        <time>2011-07-27T13:37:34Z</time>
      </trkpt>
      <trkpt lat="43.8633" lon="6.55751">
        <ele>793</ele>
        <time>2011-07-27T13:37:34Z</time>
      </trkpt>
      <trkpt lat="43.86315" lon="6.55837">
        <ele>802</ele>
        <time>2011-07-27T13:37:34Z</time>
      </trkpt>
      <trkpt lat="43.86318" lon="6.5594">
        <ele>812</ele>
        <time>2011-07-27T13:37:34Z</time>
      </trkpt>
      <trkpt lat="43.86312" lon="6.56033">
        <ele>828</ele>
        <time>2011-07-27T13:37:34Z</time>
      </trkpt>
      <trkpt lat="43.86335" lon="6.56199">
        <ele>822</ele>
        <time>2011-07-27T13:37:34Z</time>
      </trkpt>
      <trkpt lat="43.86361" lon="6.56273">
        <ele>828</ele>
        <time>2011-07-27T13:37:34Z</time>
      </trkpt>
      <trkpt lat="43.86367" lon="6.56348">
        <ele>833</ele>
        <time>2011-07-27T13:37:34Z</time>
      </trkpt>
      <trkpt lat="43.86331" lon="6.56404">
        <ele>845</ele>
        <time>2011-07-27T13:37:34Z</time>
      </trkpt>
      <trkpt lat="43.86339" lon="6.56498">
        <ele>838</ele>
        <time>2011-07-27T13:37:34Z</time>
      </trkpt>
      <trkpt lat="43.86314" lon="6.56565">
        <ele>854</ele>
        <time>2011-07-27T13:37:34Z</time>
      </trkpt>
      <trkpt lat="43.86346" lon="6.56611">
        <ele>850</ele>
        <time>2011-07-27T13:37:34Z</time>
      </trkpt>
      <trkpt lat="43.86368" lon="6.56613">
        <ele>852</ele>
        <time>2011-07-27T13:37:34Z</time>
      </trkpt>
      <trkpt lat="43.86416" lon="6.56545">
        <ele>847</ele>
        <time>2011-07-27T13:37:34Z</time>
      </trkpt>
      <trkpt lat="43.86442" lon="6.56522">
        <ele>863</ele>
        <time>2011-07-27T13:37:34Z</time>
      </trkpt>
      <trkpt lat="43.86437" lon="6.56456">
        <ele>854</ele>
        <time>2011-07-27T13:37:34Z</time>
      </trkpt>
      <trkpt lat="43.86472" lon="6.56431">
        <ele>862</ele>
      </trkpt>
      <trkpt lat="43.86483" lon="6.56394">
        <ele>856</ele>
      </trkpt>
      <trkpt lat="43.86497" lon="6.5637">
        <ele>855</ele>
      </trkpt>
      <trkpt lat="43.86504" lon="6.56312">
        <ele>872</ele>
      </trkpt>
      <trkpt lat="43.86526" lon="6.56251">
        <ele>874</ele>
      </trkpt>
      <trkpt lat="43.86521" lon="6.5617">
        <ele>866</ele>
      </trkpt>
      <trkpt lat="43.86563" lon="6.56126">
        <ele>864</ele>
      </trkpt>
      <trkpt lat="43.86618" lon="6.56146">
        <ele>882</ele>
      </trkpt>
      <trkpt lat="43.86641" lon="6.56132">
        <ele>883</ele>
      </trkpt>
      <trkpt lat="43.86646" lon="6.56064">
        <ele>875</ele>
      </trkpt>
      <trkpt lat="43.86711" lon="6.5601">
        <ele>888</ele>
      </trkpt>
      <trkpt lat="43.86736" lon="6.56002">
        <ele>891</ele>
      </trkpt>
      <trkpt lat="43.86753" lon="6.55979">
        <ele>894</ele>
      </trkpt>
      <trkpt lat="43.86757" lon="6.55941">
        <ele>892</ele>
      </trkpt>
      <trkpt lat="43.86771" lon="6.55921">
        <ele>892</ele>
      </trkpt>
      <trkpt lat="43.8681" lon="6.55911">
        <ele>893</ele>
      </trkpt>
      <trkpt lat="43.86851" lon="6.55843">
        <ele>896</ele>
      </trkpt>
      <trkpt lat="43.86889" lon="6.55846">
        <ele>897</ele>
      </trkpt>
      <trkpt lat="43.86857" lon="6.55905">
        <ele>900</ele>
      </trkpt>
      <trkpt lat="43.86847" lon="6.55942">
        <ele>908</ele>
      </trkpt>
      <trkpt lat="43.86778" lon="6.56148">
        <ele>918</ele>
      </trkpt>
      <trkpt lat="43.86782" lon="6.56214">
        <ele>928</ele>
      </trkpt>
      <trkpt lat="43.86776" lon="6.5626">
        <ele>933</ele>
      </trkpt>
      <trkpt lat="43.86764" lon="6.56325">
        <ele>934</ele>
      </trkpt>
      <trkpt lat="43.86755" lon="6.56396">
        <ele>944</ele>
      </trkpt>
      <trkpt lat="43.86697" lon="6.56432">
        <ele>947</ele>
      </trkpt>
      <trkpt lat="43.86637" lon="6.56421">
        <ele>936</ele>
      </trkpt>
      <trkpt lat="43.86613" lon="6.56447">
        <ele>935</ele>
      </trkpt>
      <trkpt lat="43.86682" lon="6.56465">
        <ele>952</ele>
      </trkpt>
      <trkpt lat="43.8675" lon="6.56473">
        <ele>955</ele>
      </trkpt>
      <trkpt lat="43.86793" lon="6.56485">
        <ele>965</ele>
        <time>2011-07-27T13:37:34Z</time>
      </trkpt>
      <trkpt lat="43.86827" lon="6.56479">
        <ele>969</ele>
        <time>2011-07-27T13:37:34Z</time>
      </trkpt>
      <trkpt lat="43.86859" lon="6.56406">
        <ele>969</ele>
        <time>2011-07-27T13:37:34Z</time>
      </trkpt>
      <trkpt lat="43.86878" lon="6.56387">
        <ele>972</ele>
        <time>2011-07-27T13:37:34Z</time>
      </trkpt>
      <trkpt lat="43.8691" lon="6.56291">
        <ele>967</ele>
        <time>2011-07-27T13:37:34Z</time>
      </trkpt>
      <trkpt lat="43.86934" lon="6.56268">
        <ele>978</ele>
        <time>2011-07-27T13:37:34Z</time>
      </trkpt>
      <trkpt lat="43.86968" lon="6.56264">
        <ele>982</ele>
        <time>2011-07-27T13:37:34Z</time>
      </trkpt>
      <trkpt lat="43.87006" lon="6.56231">
        <ele>975</ele>
        <time>2011-07-27T13:37:34Z</time>
      </trkpt>
      <trkpt lat="43.87018" lon="6.56237">
        <ele>975</ele>
        <time>2011-07-27T13:37:34Z</time>
      </trkpt>
      <trkpt lat="43.86958" lon="6.56293">
        <ele>983</ele>
        <time>2011-07-27T13:37:34Z</time>
      </trkpt>
      <trkpt lat="43.86923" lon="6.56368">
        <ele>993</ele>
        <time>2011-07-27T13:37:34Z</time>
      </trkpt>
      <trkpt lat="43.86914" lon="6.56444">
        <ele>987</ele>
        <time>2011-07-27T13:37:34Z</time>
      </trkpt>
      <trkpt lat="43.86918" lon="6.56534">
        <ele>1018</ele>
        <time>2011-07-27T13:37:34Z</time>
      </trkpt>
      <trkpt lat="43.86764" lon="6.56661">
        <ele>1006</ele>
        <time>2011-07-27T13:37:34Z</time>
      </trkpt>
      <trkpt lat="43.86763" lon="6.56823">
        <ele>1030</ele>
        <time>2011-07-27T13:37:34Z</time>
      </trkpt>
      <trkpt lat="43.8677" lon="6.56886">
        <ele>1037</ele>
        <time>2011-07-27T13:37:34Z</time>
      </trkpt>
      <trkpt lat="43.86753" lon="6.56916">
        <ele>1030</ele>
        <time>2011-07-27T13:37:34Z</time>
      </trkpt>
      <trkpt lat="43.86744" lon="6.56945">
        <ele>1019</ele>
        <time>2011-07-27T13:37:34Z</time>
      </trkpt>
      <trkpt lat="43.86811" lon="6.57183">
        <ele>1058</ele>
        <time>2011-07-27T13:37:34Z</time>
      </trkpt>
      <trkpt lat="43.86799" lon="6.57246">
        <ele>1058</ele>
        <time>2011-07-27T13:37:34Z</time>
      </trkpt>
      <trkpt lat="43.86812" lon="6.57265">
        <ele>1065</ele>
        <time>2011-07-27T13:37:34Z</time>
      </trkpt>
      <trkpt lat="43.8683" lon="6.57234">
        <ele>1062</ele>
        <time>2011-07-27T13:37:34Z</time>
      </trkpt>
      <trkpt lat="43.86825" lon="6.57185">
        <ele>1060</ele>
        <time>2011-07-27T13:37:34Z</time>
      </trkpt>
      <trkpt lat="43.86814" lon="6.57127">
        <ele>1053</ele>
        <time>2011-07-27T13:37:34Z</time>
      </trkpt>
      <trkpt lat="43.86804" lon="6.57036">
        <ele>1049</ele>
        <time>2011-07-27T13:37:34Z</time>
      </trkpt>
      <trkpt lat="43.86817" lon="6.57008">
        <ele>1053</ele>
        <time>2011-07-27T13:37:34Z</time>
      </trkpt>
      <trkpt lat="43.86857" lon="6.56989">
        <ele>1067</ele>
        <time>2011-07-27T13:37:34Z</time>
      </trkpt>
      <trkpt lat="43.86901" lon="6.56882">
        <ele>1068</ele>
        <time>2011-07-27T13:37:34Z</time>
      </trkpt>
      <trkpt lat="43.8691" lon="6.56885">
        <ele>1069</ele>
        <time>2011-07-27T13:37:34Z</time>
      </trkpt>
      <trkpt lat="43.86896" lon="6.56931">
        <ele>1072</ele>
        <time>2011-07-27T13:37:34Z</time>
      </trkpt>
      <trkpt lat="43.86897" lon="6.56984">
        <ele>1074</ele>
        <time>2011-07-27T13:37:34Z</time>
      </trkpt>
      <trkpt lat="43.86868" lon="6.57021">
        <ele>1075</ele>
        <time>2011-07-27T13:37:34Z</time>
      </trkpt>
      <trkpt lat="43.86841" lon="6.5707">
        <ele>1072</ele>
        <time>2011-07-27T13:37:34Z</time>
      </trkpt>
      <trkpt lat="43.8687" lon="6.57178">
        <ele>1086</ele>
        <time>2011-07-27T13:37:34Z</time>
      </trkpt>
      <trkpt lat="43.869" lon="6.5735">
        <ele>1098</ele>
        <time>2011-07-27T13:37:34Z</time>
      </trkpt>
      <trkpt lat="43.86917" lon="6.57435">
        <ele>1115</ele>
        <time>2011-07-27T13:37:34Z</time>
      </trkpt>
      <trkpt lat="43.86895" lon="6.57471">
        <ele>1104</ele>
        <time>2011-07-27T13:37:34Z</time>
      </trkpt>
      <trkpt lat="43.869" lon="6.5749">
        <ele>1107</ele>
        <time>2011-07-27T13:37:34Z</time>
      </trkpt>
      <trkpt lat="43.86934" lon="6.57455">
        <ele>1121</ele>
        <time>2011-07-27T13:37:34Z</time>
      </trkpt>
      <trkpt lat="43.86944" lon="6.57414">
        <ele>1121</ele>
        <time>2011-07-27T13:37:34Z</time>
      </trkpt>
      <trkpt lat="43.8693" lon="6.57361">
        <ele>1120</ele>
        <time>2011-07-27T13:37:34Z</time>
      </trkpt>
      <trkpt lat="43.86924" lon="6.57229">
        <ele>1121</ele>
        <time>2011-07-27T13:37:34Z</time>
      </trkpt>
      <trkpt lat="43.8696" lon="6.5711">
        <ele>1119</ele>
        <time>2011-07-27T13:37:34Z</time>
      </trkpt>
      <trkpt lat="43.86982" lon="6.57102">
        <ele>1122</ele>
        <time>2011-07-27T13:37:34Z</time>
      </trkpt>
      <trkpt lat="43.86963" lon="6.57168">
        <ele>1130</ele>
        <time>2011-07-27T13:37:34Z</time>
      </trkpt>
      <trkpt lat="43.86959" lon="6.57292">
        <ele>1131</ele>
        <time>2011-07-27T13:37:34Z</time>
      </trkpt>
      <trkpt lat="43.86986" lon="6.57365">
        <ele>1135</ele>
        <time>2011-07-27T13:37:34Z</time>
      </trkpt>
      <trkpt lat="43.87008" lon="6.57429">
        <ele>1155</ele>
        <time>2011-07-27T13:37:34Z</time>
      </trkpt>
      <trkpt lat="43.87016" lon="6.57498">
        <ele>1153</ele>
        <time>2011-07-27T13:37:34Z</time>
      </trkpt>
      <trkpt lat="43.87049" lon="6.57568">
        <ele>1162</ele>
        <time>2011-07-27T13:37:34Z</time>
      </trkpt>
      <trkpt lat="43.87031" lon="6.57653">
        <ele>1159</ele>
        <time>2011-07-27T13:37:34Z</time>
      </trkpt>
      <trkpt lat="43.87036" lon="6.57724">
        <ele>1163</ele>
        <time>2011-07-27T13:37:34Z</time>
      </trkpt>
      <trkpt lat="43.86967" lon="6.57854">
        <ele>1166</ele>
      </trkpt>
      <trkpt lat="43.86956" lon="6.57926">
        <ele>1171</ele>
        <time>2011-07-27T13:37:34Z</time>
      </trkpt>
      <trkpt lat="43.86933" lon="6.58021">
        <ele>1170</ele>
        <time>2011-07-27T13:37:34Z</time>
      </trkpt>
      <trkpt lat="43.86933" lon="6.58074">
        <ele>1171</ele>
        <time>2011-07-27T13:37:34Z</time>
      </trkpt>
      <trkpt lat="43.86931" lon="6.58115">
        <ele>1178</ele>
        <time>2011-07-27T13:37:34Z</time>
      </trkpt>
      <trkpt lat="43.86921" lon="6.58143">
        <ele>1179</ele>
        <time>2011-07-27T13:37:34Z</time>
      </trkpt>
      <trkpt lat="43.86864" lon="6.58217">
        <ele>1173</ele>
        <time>2011-07-27T13:37:34Z</time>
      </trkpt>
      <trkpt lat="43.8685" lon="6.58279">
        <ele>1180</ele>
        <time>2011-07-27T13:37:34Z</time>
      </trkpt>
      <trkpt lat="43.8688" lon="6.58497">
        <ele>1192</ele>
        <time>2011-07-27T13:37:34Z</time>
      </trkpt>
      <trkpt lat="43.86892" lon="6.58604">
        <ele>1196</ele>
        <time>2011-07-27T13:37:34Z</time>
      </trkpt>
      <trkpt lat="43.8692" lon="6.58625">
        <ele>1214</ele>
        <time>2011-07-27T13:37:34Z</time>
      </trkpt>
      <trkpt lat="43.86879" lon="6.58758">
        <ele>1207</ele>
        <time>2011-07-27T13:37:34Z</time>
      </trkpt>
      <trkpt lat="43.86837" lon="6.58812">
        <ele>1206</ele>
        <time>2011-07-27T13:37:34Z</time>
      </trkpt>
      <trkpt lat="43.86846" lon="6.58905">
        <ele>1214</ele>
        <time>2011-07-27T13:37:34Z</time>
      </trkpt>
      <trkpt lat="43.86817" lon="6.5907">
        <ele>1217</ele>
        <time>2011-07-27T13:37:34Z</time>
      </trkpt>
      <trkpt lat="43.86823" lon="6.59178">
        <ele>1220</ele>
        <time>2011-07-27T13:37:34Z</time>
      </trkpt>
      <trkpt lat="43.86882" lon="6.59238">
        <ele>1232</ele>
        <time>2011-07-27T13:37:34Z</time>
      </trkpt>
      <trkpt lat="43.86822" lon="6.59351">
        <ele>1230</ele>
        <time>2011-07-27T13:37:34Z</time>
      </trkpt>
      <trkpt lat="43.86815" lon="6.59412">
        <ele>1233</ele>
        <time>2011-07-27T13:37:34Z</time>
      </trkpt>
      <trkpt lat="43.86877" lon="6.59572">
        <ele>1246</ele>
        <time>2011-07-27T13:37:34Z</time>
      </trkpt>
      <trkpt lat="43.86853" lon="6.59614">
        <ele>1246</ele>
        <time>2011-07-27T13:37:34Z</time>
      </trkpt>
      <trkpt lat="43.86784" lon="6.5997">
        <ele>1256</ele>
        <time>2011-07-27T13:37:34Z</time>
      </trkpt>
      <trkpt lat="43.86827" lon="6.60037">
        <ele>1258</ele>
      </trkpt>
      <trkpt lat="43.86809" lon="6.60098">
        <ele>1258</ele>
        <time>2011-07-27T13:37:34Z</time>
      </trkpt>
      <trkpt lat="43.86835" lon="6.60165">
        <ele>1262</ele>
        <time>2011-07-27T13:37:34Z</time>
      </trkpt>
      <trkpt lat="43.86851" lon="6.60256">
        <ele>1269</ele>
        <time>2011-07-27T13:37:34Z</time>
      </trkpt>
      <trkpt lat="43.86867" lon="6.60388">
        <ele>1276</ele>
        <time>2011-07-27T13:37:34Z</time>
      </trkpt>
      <trkpt lat="43.86806" lon="6.60554">
        <ele>1279</ele>
        <time>2011-07-27T13:37:34Z</time>
      </trkpt>
      <trkpt lat="43.86781" lon="6.60901">
        <ele>1295</ele>
        <time>2011-07-27T13:37:34Z</time>
      </trkpt>
      <trkpt lat="43.86761" lon="6.6112">
        <ele>1309</ele>
        <time>2011-07-27T13:37:34Z</time>
      </trkpt>
      <trkpt lat="43.86738" lon="6.61282">
        <ele>1306</ele>
        <time>2011-07-27T13:37:34Z</time>
      </trkpt>
      <trkpt lat="43.86739" lon="6.6138">
        <ele>1311</ele>
        <time>2011-07-27T13:37:34Z</time>
      </trkpt>
      <trkpt lat="43.86728" lon="6.61537">
        <ele>1318</ele>
        <time>2011-07-27T13:37:34Z</time>
      </trkpt>
      <trkpt lat="43.8675" lon="6.61755">
        <ele>1324</ele>
        <time>2011-07-27T13:37:34Z</time>
      </trkpt>
      <trkpt lat="43.86768" lon="6.61796">
        <ele>1334</ele>
        <time>2011-07-27T13:37:34Z</time>
      </trkpt>
      <trkpt lat="43.86789" lon="6.619">
        <ele>1332</ele>
        <time>2011-07-27T13:37:34Z</time>
      </trkpt>
      <trkpt lat="43.86788" lon="6.61944">
        <ele>1331</ele>
        <time>2011-07-27T13:37:34Z</time>
      </trkpt>
      <trkpt lat="43.86782" lon="6.62">
        <ele>1331</ele>
        <time>2011-07-27T13:37:34Z</time>
      </trkpt>
      <trkpt lat="43.86746" lon="6.62045">
        <ele>1330</ele>
        <time>2011-07-27T13:37:34Z</time>
      </trkpt>
      <trkpt lat="43.86687" lon="6.62288">
        <ele>1341</ele>
        <time>2011-07-27T13:37:34Z</time>
      </trkpt>
      <trkpt lat="43.86679" lon="6.62179">
        <ele>1340</ele>
        <time>2011-07-27T13:37:34Z</time>
      </trkpt>
      <trkpt lat="43.86669" lon="6.62137">
        <ele>1337</ele>
        <time>2011-07-27T13:37:34Z</time>
      </trkpt>
      <trkpt lat="43.86656" lon="6.62014">
        <ele>1340</ele>
        <time>2011-07-27T13:37:34Z</time>
      </trkpt>
      <trkpt lat="43.8664" lon="6.61823">
        <ele>1323</ele>
        <time>2011-07-27T13:37:34Z</time>
      </trkpt>
      <trkpt lat="43.86584" lon="6.61552">
        <ele>1308</ele>
        <time>2011-07-27T13:37:34Z</time>
      </trkpt>
      <trkpt lat="43.86539" lon="6.6123">
        <ele>1302</ele>
        <time>2011-07-27T13:37:34Z</time>
      </trkpt>
      <trkpt lat="43.86531" lon="6.60897">
        <ele>1299</ele>
        <time>2011-07-27T13:37:34Z</time>
      </trkpt>
      <trkpt lat="43.8651" lon="6.60688">
        <ele>1295</ele>
        <time>2011-07-27T13:37:34Z</time>
      </trkpt>
      <trkpt lat="43.86494" lon="6.60513">
        <ele>1306</ele>
        <time>2011-07-27T13:37:34Z</time>
      </trkpt>
      <trkpt lat="43.86463" lon="6.60053">
        <ele>1296</ele>
        <time>2011-07-27T13:37:34Z</time>
      </trkpt>
      <trkpt lat="43.86448" lon="6.59974">
        <ele>1295</ele>
        <time>2011-07-27T13:37:34Z</time>
      </trkpt>
      <trkpt lat="43.86443" lon="6.59891">
        <ele>1295</ele>
        <time>2011-07-27T13:37:34Z</time>
      </trkpt>
      <trkpt lat="43.8644" lon="6.5974">
        <ele>1294</ele>
        <time>2011-07-27T13:37:34Z</time>
      </trkpt>
      <trkpt lat="43.86406" lon="6.59553">
        <ele>1303</ele>
        <time>2011-07-27T13:37:34Z</time>
      </trkpt>
      <trkpt lat="43.86346" lon="6.59458">
        <ele>1298</ele>
        <time>2011-07-27T13:37:34Z</time>
      </trkpt>
      <trkpt lat="43.86332" lon="6.59398">
        <ele>1302</ele>
        <time>2011-07-27T13:37:34Z</time>
      </trkpt>
      <trkpt lat="43.86329" lon="6.59339">
        <ele>1294</ele>
        <time>2011-07-27T13:37:34Z</time>
      </trkpt>
      <trkpt lat="43.86265" lon="6.59325">
        <ele>1290</ele>
        <time>2011-07-27T13:37:34Z</time>
      </trkpt>
      <trkpt lat="43.86233" lon="6.59379">
        <ele>1313</ele>
        <time>2011-07-27T13:37:34Z</time>
      </trkpt>
      <trkpt lat="43.86202" lon="6.59305">
        <ele>1298</ele>
        <time>2011-07-27T13:37:34Z</time>
      </trkpt>
      <trkpt lat="43.86076" lon="6.59146">
        <ele>1300</ele>
        <time>2011-07-27T13:37:34Z</time>
      </trkpt>
      <trkpt lat="43.86019" lon="6.59111">
        <ele>1299</ele>
        <time>2011-07-27T13:37:34Z</time>
      </trkpt>
      <trkpt lat="43.85951" lon="6.5905">
        <ele>1291</ele>
        <time>2011-07-27T13:37:34Z</time>
      </trkpt>
      <trkpt lat="43.85927" lon="6.59036">
        <ele>1290</ele>
        <time>2011-07-27T13:37:34Z</time>
      </trkpt>
      <trkpt lat="43.85831" lon="6.59013">
        <ele>1288</ele>
        <time>2011-07-27T13:37:34Z</time>
      </trkpt>
      <trkpt lat="43.858" lon="6.58995">
        <ele>1274</ele>
        <time>2011-07-27T13:37:34Z</time>
      </trkpt>
      <trkpt lat="43.85735" lon="6.5899">
        <ele>1271</ele>
        <time>2011-07-27T13:37:34Z</time>
      </trkpt>
      <trkpt lat="43.8568" lon="6.59017">
        <ele>1281</ele>
        <time>2011-07-27T13:37:34Z</time>
      </trkpt>
      <trkpt lat="43.85662" lon="6.5903">
        <ele>1275</ele>
        <time>2011-07-27T13:37:34Z</time>
      </trkpt>
      <trkpt lat="43.85617" lon="6.59024">
        <ele>1270</ele>
        <time>2011-07-27T13:37:34Z</time>
      </trkpt>
      <trkpt lat="43.85589" lon="6.59042">
        <ele>1270</ele>
        <time>2011-07-27T13:37:34Z</time>
      </trkpt>
      <trkpt lat="43.85539" lon="6.59079">
        <ele>1261</ele>
        <time>2011-07-27T13:37:34Z</time>
      </trkpt>
      <trkpt lat="43.85469" lon="6.59069">
        <ele>1258</ele>
        <time>2011-07-27T13:37:34Z</time>
      </trkpt>
      <trkpt lat="43.85467" lon="6.58948">
        <ele>1247</ele>
        <time>2011-07-27T13:37:34Z</time>
      </trkpt>
      <trkpt lat="43.85465" lon="6.58893">
        <ele>1241</ele>
        <time>2011-07-27T13:37:34Z</time>
      </trkpt>
      <trkpt lat="43.85429" lon="6.58871">
        <ele>1244</ele>
        <time>2011-07-27T13:37:34Z</time>
      </trkpt>
      <trkpt lat="43.85414" lon="6.58883">
        <ele>1256</ele>
        <time>2011-07-27T13:37:34Z</time>
      </trkpt>
      <trkpt lat="43.85439" lon="6.58958">
        <ele>1250</ele>
        <time>2011-07-27T13:37:34Z</time>
      </trkpt>
      <trkpt lat="43.85426" lon="6.58992">
        <ele>1256</ele>
      </trkpt>
      <trkpt lat="43.85399" lon="6.58965">
        <ele>1265</ele>
        <time>2011-07-27T13:37:34Z</time>
      </trkpt>
      <trkpt lat="43.85389" lon="6.58915">
        <ele>1259</ele>
        <time>2011-07-27T13:37:34Z</time>
      </trkpt>
      <trkpt lat="43.85364" lon="6.58865">
        <ele>1260</ele>
        <time>2011-07-27T13:37:34Z</time>
      </trkpt>
      <trkpt lat="43.85312" lon="6.58812">
        <ele>1266</ele>
        <time>2011-07-27T13:37:34Z</time>
      </trkpt>
      <trkpt lat="43.85244" lon="6.58708">
        <ele>1274</ele>
        <time>2011-07-27T13:37:34Z</time>
      </trkpt>
      <trkpt lat="43.85182" lon="6.58551">
        <ele>1268</ele>
        <time>2011-07-27T13:37:34Z</time>
      </trkpt>
      <trkpt lat="43.85166" lon="6.58461">
        <ele>1282</ele>
        <time>2011-07-27T13:37:34Z</time>
      </trkpt>
      <trkpt lat="43.8513" lon="6.58351">
        <ele>1280</ele>
        <time>2011-07-27T13:37:34Z</time>
      </trkpt>
      <trkpt lat="43.85077" lon="6.58269">
        <ele>1287</ele>
        <time>2011-07-27T13:37:34Z</time>
      </trkpt>
      <trkpt lat="43.85054" lon="6.58227">
        <ele>1284</ele>
        <time>2011-07-27T13:37:34Z</time>
      </trkpt>
      <trkpt lat="43.85035" lon="6.58186">
        <ele>1284</ele>
        <time>2011-07-27T13:37:34Z</time>
      </trkpt>
      <trkpt lat="43.84989" lon="6.58094">
        <ele>1287</ele>
        <time>2011-07-27T13:37:34Z</time>
      </trkpt>
      <trkpt lat="43.84962" lon="6.58053">
        <ele>1289</ele>
        <time>2011-07-27T13:37:34Z</time>
      </trkpt>
      <trkpt lat="43.84955" lon="6.57992">
        <ele>1285</ele>
        <time>2011-07-27T13:37:34Z</time>
      </trkpt>
      <trkpt lat="43.84942" lon="6.57988">
        <ele>1285</ele>
        <time>2011-07-27T13:37:34Z</time>
      </trkpt>
      <trkpt lat="43.84878" lon="6.57931">
        <ele>1284</ele>
        <time>2011-07-27T13:37:34Z</time>
      </trkpt>
      <trkpt lat="43.84756" lon="6.57738">
        <ele>1260</ele>
        <time>2011-07-27T13:37:34Z</time>
      </trkpt>
      <trkpt lat="43.84716" lon="6.57667">
        <ele>1249</ele>
        <time>2011-07-27T13:37:34Z</time>
      </trkpt>
      <trkpt lat="43.84724" lon="6.57663">
        <ele>1249</ele>
        <time>2011-07-27T13:37:34Z</time>
      </trkpt>
      <trkpt lat="43.8473" lon="6.57648">
        <ele>1248</ele>
        <time>2011-07-27T13:37:34Z</time>
      </trkpt>
      <trkpt lat="43.84726" lon="6.57617">
        <ele>1246</ele>
        <time>2011-07-27T13:37:34Z</time>
      </trkpt>
      <trkpt lat="43.84698" lon="6.57511">
        <ele>1233</ele>
        <time>2011-07-27T13:37:34Z</time>
      </trkpt>
      <trkpt lat="43.8468" lon="6.57455">
        <ele>1223</ele>
        <time>2011-07-27T13:37:34Z</time>
      </trkpt>
      <trkpt lat="43.84676" lon="6.57411">
        <ele>1215</ele>
        <time>2011-07-27T13:37:34Z</time>
      </trkpt>
      <trkpt lat="43.84643" lon="6.57335">
        <ele>1212</ele>
        <time>2011-07-27T13:37:34Z</time>
      </trkpt>
      <trkpt lat="43.84627" lon="6.57255">
        <ele>1201</ele>
        <time>2011-07-27T13:37:34Z</time>
      </trkpt>
      <trkpt lat="43.84622" lon="6.57217">
        <ele>1189</ele>
        <time>2011-07-27T13:37:34Z</time>
      </trkpt>
      <trkpt lat="43.84623" lon="6.57189">
        <ele>1186</ele>
        <time>2011-07-27T13:37:34Z</time>
      </trkpt>
      <trkpt lat="43.84625" lon="6.57169">
        <ele>1185</ele>
        <time>2011-07-27T13:37:34Z</time>
      </trkpt>
      <trkpt lat="43.84628" lon="6.57149">
        <ele>1173</ele>
        <time>2011-07-27T13:37:34Z</time>
      </trkpt>
      <trkpt lat="43.84633" lon="6.57129">
        <ele>1171</ele>
        <time>2011-07-27T13:37:34Z</time>
      </trkpt>
      <trkpt lat="43.84648" lon="6.57109">
        <ele>1168</ele>
        <time>2011-07-27T13:37:34Z</time>
      </trkpt>
      <trkpt lat="43.84653" lon="6.57095">
        <ele>1166</ele>
        <time>2011-07-27T13:37:34Z</time>
      </trkpt>
      <trkpt lat="43.84667" lon="6.57045">
        <ele>1167</ele>
        <time>2011-07-27T13:37:34Z</time>
      </trkpt>
      <trkpt lat="43.84648" lon="6.5698">
        <ele>1146</ele>
        <time>2011-07-27T13:37:34Z</time>
      </trkpt>
      <trkpt lat="43.84626" lon="6.56841">
        <ele>1129</ele>
        <time>2011-07-27T13:37:34Z</time>
      </trkpt>
      <trkpt lat="43.84589" lon="6.56646">
        <ele>1105</ele>
        <time>2011-07-27T13:37:34Z</time>
      </trkpt>
      <trkpt lat="43.84579" lon="6.56566">
        <ele>1087</ele>
        <time>2011-07-27T13:37:34Z</time>
      </trkpt>
      <trkpt lat="43.84556" lon="6.5652">
        <ele>1083</ele>
        <time>2011-07-27T13:37:34Z</time>
      </trkpt>
      <trkpt lat="43.84536" lon="6.56438">
        <ele>1071</ele>
        <time>2011-07-27T13:37:34Z</time>
      </trkpt>
      <trkpt lat="43.84539" lon="6.56395">
        <ele>1065</ele>
        <time>2011-07-27T13:37:34Z</time>
      </trkpt>
      <trkpt lat="43.8453" lon="6.56361">
        <ele>1062</ele>
        <time>2011-07-27T13:37:34Z</time>
      </trkpt>
      <trkpt lat="43.84524" lon="6.56302">
        <ele>1054</ele>
        <time>2011-07-27T13:37:34Z</time>
      </trkpt>
      <trkpt lat="43.84502" lon="6.56233">
        <ele>1044</ele>
        <time>2011-07-27T13:37:34Z</time>
      </trkpt>
      <trkpt lat="43.84491" lon="6.56085">
        <ele>1028</ele>
        <time>2011-07-27T13:37:34Z</time>
      </trkpt>
      <trkpt lat="43.84469" lon="6.5599">
        <ele>1020</ele>
        <time>2011-07-27T13:37:34Z</time>
      </trkpt>
      <trkpt lat="43.84446" lon="6.55867">
        <ele>1015</ele>
        <time>2011-07-27T13:37:34Z</time>
      </trkpt>
      <trkpt lat="43.84436" lon="6.55729">
        <ele>1007</ele>
        <time>2011-07-27T13:37:34Z</time>
      </trkpt>
      <trkpt lat="43.84441" lon="6.55615">
        <ele>997</ele>
        <time>2011-07-27T13:37:34Z</time>
      </trkpt>
      <trkpt lat="43.84466" lon="6.55503">
        <ele>987</ele>
        <time>2011-07-27T13:37:34Z</time>
      </trkpt>
      <trkpt lat="43.84445" lon="6.55442">
        <ele>974</ele>
        <time>2011-07-27T13:37:34Z</time>
      </trkpt>
      <trkpt lat="43.84432" lon="6.55334">
        <ele>960</ele>
        <time>2011-07-27T13:37:34Z</time>
      </trkpt>
      <trkpt lat="43.84412" lon="6.55232">
        <ele>937</ele>
        <time>2011-07-27T13:37:34Z</time>
      </trkpt>
      <trkpt lat="43.84398" lon="6.55137">
        <ele>924</ele>
        <time>2011-07-27T13:37:34Z</time>
      </trkpt>
      <trkpt lat="43.84396" lon="6.55039">
        <ele>913</ele>
        <time>2011-07-27T13:37:34Z</time>
      </trkpt>
      <trkpt lat="43.84409" lon="6.54981">
        <ele>910</ele>
        <time>2011-07-27T13:37:34Z</time>
      </trkpt>
      <trkpt lat="43.84388" lon="6.54911">
        <ele>899</ele>
        <time>2011-07-27T13:37:34Z</time>
      </trkpt>
      <trkpt lat="43.84391" lon="6.54759">
        <ele>883</ele>
        <time>2011-07-27T13:37:34Z</time>
      </trkpt>
      <trkpt lat="43.84378" lon="6.54722">
        <ele>870</ele>
        <time>2011-07-27T13:37:34Z</time>
      </trkpt>
      <trkpt lat="43.84394" lon="6.54657">
        <ele>862</ele>
        <time>2011-07-27T13:37:34Z</time>
      </trkpt>
      <trkpt lat="43.8442" lon="6.54575">
        <ele>864</ele>
        <time>2011-07-27T13:37:34Z</time>
      </trkpt>
      <trkpt lat="43.8444" lon="6.54363">
        <ele>843</ele>
        <time>2011-07-27T13:37:34Z</time>
      </trkpt>
      <trkpt lat="43.8444" lon="6.54105">
        <ele>806</ele>
        <time>2011-07-27T13:37:34Z</time>
      </trkpt>
      <trkpt lat="43.84423" lon="6.53975">
        <ele>783</ele>
        <time>2011-07-27T13:37:34Z</time>
      </trkpt>
      <trkpt lat="43.84381" lon="6.53892">
        <ele>779</ele>
        <time>2011-07-27T13:37:34Z</time>
      </trkpt>
      <trkpt lat="43.84346" lon="6.53795">
        <ele>775</ele>
        <time>2011-07-27T13:37:34Z</time>
      </trkpt>
      <trkpt lat="43.84302" lon="6.53683">
        <ele>769</ele>
        <time>2011-07-27T13:37:34Z</time>
      </trkpt>
      <trkpt lat="43.84302" lon="6.53611">
        <ele>761</ele>
        <time>2011-07-27T13:37:34Z</time>
      </trkpt>
      <trkpt lat="43.84349" lon="6.53506">
        <ele>748</ele>
        <time>2011-07-27T13:37:34Z</time>
      </trkpt>
      <trkpt lat="43.84378" lon="6.53463">
        <ele>741</ele>
        <time>2011-07-27T13:37:34Z</time>
      </trkpt>
      <trkpt lat="43.84375" lon="6.5334">
        <ele>737</ele>
        <time>2011-07-27T13:37:34Z</time>
      </trkpt>
      <trkpt lat="43.84341" lon="6.53256">
        <ele>739</ele>
        <time>2011-07-27T13:37:34Z</time>
      </trkpt>
      <trkpt lat="43.84208" lon="6.5272">
        <ele>733</ele>
        <time>2011-07-27T13:37:34Z</time>
      </trkpt>
      <trkpt lat="43.84207" lon="6.52625">
        <ele>740</ele>
        <time>2011-07-27T13:37:34Z</time>
      </trkpt>
      <trkpt lat="43.84232" lon="6.52567">
        <ele>748</ele>
        <time>2011-07-27T13:37:34Z</time>
      </trkpt>
      <trkpt lat="43.84326" lon="6.52231">
        <ele>761</ele>
      </trkpt>
      <trkpt lat="43.84447" lon="6.5198">
        <ele>746</ele>
        <time>2011-07-27T13:37:34Z</time>
      </trkpt>
      <trkpt lat="43.84511" lon="6.51717">
        <ele>748</ele>
      </trkpt>
      <trkpt lat="43.84513" lon="6.51484">
        <ele>730</ele>
        <time>2011-07-27T13:37:34Z</time>
      </trkpt>
      <trkpt lat="43.84573" lon="6.51394">
        <ele>724</ele>
        <time>2011-07-27T13:37:34Z</time>
      </trkpt>
      <trkpt lat="43.84528" lon="6.51251">
        <ele>723</ele>
        <time>2011-07-27T13:37:34Z</time>
      </trkpt>
      <trkpt lat="43.84303" lon="6.50361">
        <ele>720</ele>
        <time>2011-07-27T13:37:34Z</time>
      </trkpt>
      <trkpt lat="43.84008" lon="6.49677">
        <ele>714</ele>
        <time>2011-07-27T13:37:34Z</time>
      </trkpt>
      <trkpt lat="43.84169" lon="6.49586">
        <ele>726</ele>
        <time>2011-07-27T13:37:34Z</time>
      </trkpt>
      <trkpt lat="43.83953" lon="6.49275">
        <ele>746</ele>
        <time>2011-07-27T13:37:34Z</time>
      </trkpt>
      <trkpt lat="43.83804" lon="6.49187">
        <ele>759</ele>
        <time>2011-07-27T13:37:34Z</time>
      </trkpt>
      <trkpt lat="43.83777" lon="6.49132">
        <ele>764</ele>
        <time>2011-07-27T13:37:34Z</time>
      </trkpt>
      <trkpt lat="43.83773" lon="6.49051">
        <ele>761</ele>
        <time>2011-07-27T13:37:34Z</time>
      </trkpt>
      <trkpt lat="43.83785" lon="6.48961">
        <ele>758</ele>
        <time>2011-07-27T13:37:34Z</time>
      </trkpt>
    </trkseg>
  </trk>
</gpx>